Location: ??????
(31.2056°N, 45.3906°E)
Time: 21:15:21
(UTC+00:00)

Cosmos 1300 - Pass Details

Date: 09 April 2020
Orbit: 511 x 515 km, 82.5° (Epoch: 02 June)

Event Time Altitude Azimuth Distance (km) Brightness Sun altitude
Exits shadow 17:08:50 74° 16° (NNE) 538 2.6 -22.4°
Drops below altitude 10° 17:12:20 10° 7° (N) 1,742 5.6 -23.0°
Sets 17:14:28 0° 7° (N) 2,632 6.5 -23.4°
